Flag for U.S.A. Weather past 2 weeks in Bellingham, Washington, U.S.A.

Now
65 °F

Sunny.


Feels Like: 65 °F
Forecast: 40 / 64 °F
Wind: 6 mph from Northwest

Location: Bellingham International Airport

Current Time: Apr 18, 2015 at 2:30:13 PM

Latest Report: Apr 18, 2015 at 1:53 PM


Visibility: 10 mi

Pressure: 30.35 "Hg

Humidity: 45%

Dew point: 43 °F

Location of BellinghamLocation

Historic Weather in Bellingham — Graph

°F

Bellingham temperature yesterday

Maximum temperature yesterday: 62 °F (at 2:53 PM)
Minimum temperature yesterday: 42 °F (at 12:53 AM)
Average temperature yesterday: 52 °F

Past Weeks' High & Low Weather Summary

 TemperatureHumidityPressure
High63 °F (Apr 18, 12:53 PM)97% (Apr 10, 6:53 AM)30.57 "Hg (Apr 10, 6:53 AM)
Low34 °F (Apr 5, 5:53 AM)38% (Apr 14, 12:53 PM)29.67 "Hg (Apr 6, 1:03 AM)
Average48 °F72%30.08 "Hg
* Reported Apr 3 12:53 PM — Apr 18 12:53 PM, Bellingham, Weather by CustomWeather, © 2015

Note: Actual official high and low records may vary slightly from our data, if they occured in-between our weather recording intervals... More about our weather records

Advertising

Bellingham weather history for previous 24 hours

 ConditionsComfort  
Time TempWeatherWind HumidityBarometerVisibility
12:53 PM
Sat, Apr 18
63 °FSunny.7 mph48%30.37 "Hg10 mi
11:53 AM59 °FSunny.5 mph49%30.39 "Hg10 mi
10:53 AM57 °FSunny.5 mph58%30.41 "Hg10 mi
9:53 AM55 °FSunny.3 mph64%30.41 "Hg10 mi
8:53 AM51 °FSunny.No wind77%30.40 "Hg10 mi
7:53 AM47 °FSunny.No wind90%30.40 "Hg10 mi
6:53 AM41 °FClear.No wind93%30.39 "Hg10 mi
5:53 AM40 °FClear.No wind93%30.37 "Hg10 mi
4:53 AM42 °FClear.No wind92%30.37 "Hg10 mi
3:53 AM42 °FClear.No wind92%30.37 "Hg10 mi
2:53 AM44 °FClear.No wind85%30.36 "Hg10 mi
1:53 AM47 °FClear.No wind77%30.36 "Hg10 mi
12:53 AM49 °FClear.3 mph69%30.35 "Hg10 mi
11:53 PM
Fri, Apr 17
48 °FClear.No wind66%30.34 "Hg10 mi
10:53 PM49 °FClear.5 mph64%30.33 "Hg10 mi
9:53 PM49 °FClear.No wind69%30.32 "Hg10 mi
8:53 PM52 °FPassing clouds.No wind61%30.30 "Hg10 mi
7:53 PM56 °FPartly sunny.3 mph55%30.28 "Hg10 mi
6:53 PM59 °FSunny.5 mph54%30.27 "Hg10 mi
5:53 PM60 °FSunny.5 mph56%30.27 "Hg10 mi
4:53 PM60 °FSunny.8 mph58%30.28 "Hg10 mi
3:53 PM62 °FSunny.10 mph50%30.28 "Hg10 mi
2:53 PM62 °FSunny.6 mph50%30.27 "Hg10 mi
Weather by CustomWeather, © 2015

See weather overviewHow to use our weather pages